Weather History for Shannon, Ireland

Change the Weather History Date:

Friday, September 27, 2013

  Actual Average Record
Temperature  
Mean Temperature 61 °F -  
Max Temperature 67 °F 58 °F 68 °F (2001)
Min Temperature 55 °F 46 °F 35 °F (2007)
Degree Days  
Heating Degree Days 4    
Growing Degree Days 11 (Base 50)    
Moisture  
Dew Point 57 °F    
Average Humidity 87    
Maximum Humidity 100    
Minimum Humidity 73    
Precipitation  
Precipitation 0.00 in 0.12 in - ()
Sea Level Pressure  
Sea Level Pressure 29.88 in    
Wind  
Wind Speed 9 mph ()    
Max Wind Speed 14 mph    
Max Gust Speed -    
Visibility 5.7 miles    
Events Rain    
Averages and records for this station are not official NWS values.
T = Trace of Precipitation, MM = Missing Value Source: Averaged Metar Reports

Daily Weather History Graph

Daily Weather History Graph

Search for Another Location

Airport:

Trip Planner

Search our weather history database for the weather conditions in past years. The results will help you decide how hot, cold, wet, or windy it might be!

Date:

Astronomy

Sep. 27, 2013 Rise Set
Actual Time 7:30 AM IST 7:22 PM IST
Civil Twilight 6:56 AM IST 7:56 PM IST
Nautical Twilight 6:15 AM IST 8:36 PM IST
Astronomical Twilight 5:34 AM IST 9:17 PM IST
Moon No Moon Rise 3:33 PM IST (9/27)
Length of Visible Light 13h 00m
Length of Day
11h 51m
Waning Gibbous, 47% of the Moon is Illuminated
Sep 27
Waning Gibbous
Oct 5
New
Oct 12
First Quarter
Oct 19
Full
Oct 27
Last Quarter

Hourly Weather History & Observations

Time (IST) Temp. Dew Point Humidity Pressure Visibility Wind Dir Wind Speed Gust Speed Precip Events Conditions
12:00 AM 57.2 °F 55.4 °F 94% 29.95 in - SE 9.2 mph - N/A   Clear
12:30 AM 57.2 °F 55.4 °F 94% 29.95 in 6.2 mi ESE 9.2 mph - N/A   Partly Cloudy
1:00 AM 57.2 °F 55.4 °F 94% 29.95 in 6.2 mi ESE 11.5 mph - N/A   Scattered Clouds
1:30 AM 59.0 °F 55.4 °F 88% 29.95 in 6.2 mi ESE 11.5 mph - N/A   Partly Cloudy
2:00 AM 57.2 °F 55.4 °F 94% 29.95 in 6.2 mi ESE 11.5 mph - N/A   Partly Cloudy
2:30 AM 59.0 °F 55.4 °F 88% 29.95 in 6.2 mi SE 12.7 mph - N/A   Mostly Cloudy
3:00 AM 57.2 °F 55.4 °F 94% 29.92 in 6.2 mi ESE 9.2 mph - N/A   Scattered Clouds
3:30 AM 57.2 °F 53.6 °F 88% 29.92 in 6.2 mi ESE 8.1 mph - N/A   Scattered Clouds
4:00 AM 57.2 °F 53.6 °F 88% 29.92 in 6.2 mi ESE 10.4 mph - N/A   Scattered Clouds
4:30 AM 57.2 °F 53.6 °F 88% 29.92 in 6.2 mi East 9.2 mph - N/A   Mostly Cloudy
5:00 AM 55.4 °F 53.6 °F 94% 29.92 in 6.2 mi ESE 9.2 mph - N/A   Scattered Clouds
5:30 AM 55.4 °F 53.6 °F 94% 29.89 in 6.2 mi ESE 9.2 mph - N/A   Scattered Clouds
6:00 AM 55.4 °F 53.6 °F 94% 29.89 in 6.2 mi ESE 8.1 mph - N/A   Mostly Cloudy
6:30 AM 55.4 °F 53.6 °F 94% 29.89 in 6.2 mi ESE 11.5 mph - N/A   Mostly Cloudy
7:00 AM 56 °F 54 °F 90% 29.91 in 9 mi ESE 8.9 mph - -   Mist
7:00 AM 55.4 °F 53.6 °F 94% 29.89 in 6.2 mi ESE 9.2 mph - N/A   Mostly Cloudy
7:30 AM 55.4 °F 53.6 °F 94% 29.89 in 5.0 mi East 10.4 mph - N/A   Mostly Cloudy
8:00 AM 55.4 °F 55.4 °F 100% 29.89 in 5.0 mi East 10.4 mph - N/A   Mostly Cloudy
8:30 AM 57.2 °F 55.4 °F 94% 29.89 in 5.0 mi East 6.9 mph - N/A   Mostly Cloudy
9:00 AM 57.2 °F 55.4 °F 94% 29.89 in 5.0 mi East 6.9 mph - N/A   Mostly Cloudy
9:30 AM 59.0 °F 55.4 °F 88% 29.89 in 4.3 mi East 11.5 mph - N/A   Mostly Cloudy
10:00 AM 59.0 °F 57.2 °F 94% 29.89 in 3.7 mi East 12.7 mph - N/A   Mostly Cloudy
10:30 AM 59.0 °F 57.2 °F 94% 29.89 in 3.7 mi ESE 9.2 mph - N/A   Mostly Cloudy
11:00 AM 60.8 °F 59.0 °F 94% 29.89 in 3.7 mi ESE 10.4 mph - N/A   Mostly Cloudy
11:30 AM 62.6 °F 59.0 °F 88% 29.89 in 3.7 mi East 11.5 mph - N/A   Mostly Cloudy
12:00 PM 62.6 °F 59.0 °F 88% 29.89 in 4.3 mi East 9.2 mph - N/A   Mostly Cloudy
12:30 PM 62.6 °F 59.0 °F 88% 29.89 in 4.3 mi East 9.2 mph - N/A   Mostly Cloudy
1:00 PM 63 °F 59 °F 82% 29.89 in 5 mi East 6.7 mph - -   Mist
1:00 PM 62.6 °F 59.0 °F 88% 29.89 in 5.0 mi East 6.9 mph - N/A   Mostly Cloudy
1:30 PM 64.4 °F 59.0 °F 83% 29.86 in 6.2 mi ENE 8.1 mph - N/A   Mostly Cloudy
2:00 PM 64.4 °F 59.0 °F 83% 29.86 in 6.2 mi ESE 6.9 mph - N/A   Mostly Cloudy
2:30 PM 64.4 °F 59.0 °F 83% 29.86 in 6.2 mi East 8.1 mph - N/A   Mostly Cloudy
3:00 PM 66.2 °F 59.0 °F 78% 29.86 in 6.2 mi East 8.1 mph - N/A   Mostly Cloudy
3:30 PM 66.2 °F 59.0 °F 78% 29.86 in 6.2 mi ESE 8.1 mph - N/A   Mostly Cloudy
4:00 PM 66.2 °F 59.0 °F 78% 29.83 in 6.2 mi ESE 8.1 mph - N/A   Mostly Cloudy
4:30 PM 68.0 °F 59.0 °F 73% 29.83 in 6.2 mi East 8.1 mph - N/A   Mostly Cloudy
5:00 PM 68.0 °F 59.0 °F 73% 29.83 in 6.2 mi East 6.9 mph - N/A   Mostly Cloudy
5:30 PM 68.0 °F 59.0 °F 73% 29.83 in 6.2 mi ENE 9.2 mph - N/A   Mostly Cloudy
6:00 PM 68.0 °F 59.0 °F 73% 29.83 in 6.2 mi NE 10.4 mph - N/A   Mostly Cloudy
6:30 PM 66.2 °F 60.8 °F 83% 29.83 in 6.2 mi East 8.1 mph - N/A   Mostly Cloudy
7:00 PM 65 °F 60 °F 79% 29.84 in 6 mi East 8.9 mph - -   Mist
7:00 PM 66.2 °F 60.8 °F 83% 29.83 in 5.6 mi East 8.1 mph - N/A   Mostly Cloudy
7:30 PM 64.4 °F 60.8 °F 88% 29.83 in 5.6 mi East 6.9 mph - N/A   Mostly Cloudy
8:00 PM 64.4 °F 59.0 °F 83% 29.83 in 6.2 mi ENE 9.2 mph - N/A   Mostly Cloudy
8:30 PM 64.4 °F 59.0 °F 83% 29.83 in 6.2 mi East 9.2 mph - N/A   Mostly Cloudy
9:00 PM 64.4 °F 59.0 °F 83% 29.83 in 5.6 mi East 6.9 mph - N/A   Mostly Cloudy
9:30 PM 62.6 °F 59.0 °F 88% 29.83 in 5.6 mi ESE 10.4 mph - N/A   Mostly Cloudy
10:00 PM 62.6 °F 59.0 °F 88% 29.83 in 5.6 mi East 13.8 mph - N/A   Mostly Cloudy
10:30 PM 62.6 °F 57.2 °F 82% 29.80 in 5.6 mi East 8.1 mph - N/A   Mostly Cloudy
11:00 PM 62.6 °F 57.2 °F 82% 29.80 in 5.0 mi East 9.2 mph - N/A Rain Light Rain
11:30 PM 62.6 °F 57.2 °F 82% 29.80 in 5.0 mi East 9.2 mph - N/A   Mostly Cloudy